Location: Newark
(13.6797°N, 8.5297°E)
Time: 00:00:01
(UTC+00:00)

SR - Pass Details

Date: 03 February 2020
Orbit: 575 x 880 km, 66.7° (Epoch: 26 February)

Event Time Altitude Azimuth Distance (km) Brightness Sun altitude
Rises 18:07:04 0° 199° (SSW) 3,264 ? -10.3°
Reaches altitude 10° 18:09:25 10° 198° (SSW) 2,377 ? -10.8°
Maximum altitude 18:14:57 84° 110° (ESE) 851 ? -12.1°
Drops below altitude 10° 18:20:49 10° 22° (NNE) 2,513 ? -13.5°
Enters shadow 18:22:56 - 22° (NNE) 3,311 ? -14.0°
Sets 18:23:20 0° 22° (NNE) 3,464 - -14.1°
